Satellite: NOAA-11 Catalog number: 19531 Epoch time: 11292.80010442 Element set: 0671 Inclination: 098.7485 deg RA of node: 017.8782 deg Eccentricity: 0.0010958 Arg of perigee: 189.3072 deg Mean anomaly: 170.7917 deg Mean motion: 14.14930029 rev/day Decay rate: 2.38e-06 rev/day^2 Epoch rev: 19037 Checksum: 304
Satellite: NOAA-12 Catalog number: 21263 Epoch time: 11292.93889198 Element set: 0182 Inclination: 098.7459 deg RA of node: 310.5351 deg Eccentricity: 0.0013667 Arg of perigee: 178.4514 deg Mean anomaly: 181.6712 deg Mean motion: 14.25445465 rev/day Decay rate: 5.8e-07 rev/day^2 Epoch rev: 06218 Checksum: 318
Satellite: MET-3/5 Catalog number: 21655 Epoch time: 11293.78573514 Element set: 238 Inclination: 082.5573 deg RA of node: 322.0371 deg Eccentricity: 0.0013015 Arg of perigee: 198.2990 deg Mean anomaly: 161.7625 deg Mean motion: 13.17031225 rev/day Decay rate: 5.1e-07 rev/day^2 Epoch rev: 97025 Checksum: 285
Satellite: MET-2/21 Catalog number: 22782 Epoch time: 11293.42983125 Element set: 234 Inclination: 082.5487 deg RA of node: 223.5043 deg Eccentricity: 0.0024011 Arg of perigee: 106.1978 deg Mean anomaly: 254.1832 deg Mean motion: 13.83665752 rev/day Decay rate: 1.55e-06 rev/day^2 Epoch rev: 91587 Checksum: 300
Satellite: OKEAN-4 Catalog number: 23317 Epoch time: 11292.97725635 Element set: 0739 Inclination: 082.5379 deg RA of node: 256.5948 deg Eccentricity: 0.0023847 Arg of perigee: 068.8008 deg Mean anomaly: 291.5750 deg Mean motion: 14.83226719 rev/day Decay rate: 1.765e-05 rev/day^2 Epoch rev: 91904 Checksum: 348
Satellite: NOAA-14 Catalog number: 23455 Epoch time: 11292.94362379 Element set: 0667 Inclination: 098.8459 deg RA of node: 014.2958 deg Eccentricity: 0.0008720 Arg of perigee: 288.7034 deg Mean anomaly: 071.3188 deg Mean motion: 14.13839474 rev/day Decay rate: 5.9e-07 rev/day^2 Epoch rev: 86670 Checksum: 346
Satellite: NOAA-15 Catalog number: 25338 Epoch time: 11292.80223428 Element set: 0989 Inclination: 098.6689 deg RA of node: 277.3198 deg Eccentricity: 0.0011654 Arg of perigee: 090.7575 deg Mean anomaly: 269.4944 deg Mean motion: 14.24964361 rev/day Decay rate: 1.42e-06 rev/day^2 Epoch rev: 69847 Checksum: 359
Satellite: RESURS Catalog number: 25394 Epoch time: 11293.50933009 Element set: 921 Inclination: 098.3063 deg RA of node: 289.6685 deg Eccentricity: 0.0000562 Arg of perigee: 194.1066 deg Mean anomaly: 166.0099 deg Mean motion: 14.24245898 rev/day Decay rate: 6.4e-07 rev/day^2 Epoch rev: 69014 Checksum: 311
Satellite: FENGYUN1 Catalog number: 25730 Epoch time: 11292.96123438 Element set: 0450 Inclination: 098.8258 deg RA of node: 251.4858 deg Eccentricity: 0.0024383 Arg of perigee: 329.7011 deg Mean anomaly: 030.2748 deg Mean motion: 14.08919904 rev/day Decay rate: 1.997e-05 rev/day^2 Epoch rev: 64063 Checksum: 316
Satellite: OKEAN-0 Catalog number: 25860 Epoch time: 11293.49010240 Element set: 443 Inclination: 097.9009 deg RA of node: 256.6051 deg Eccentricity: 0.0000975 Arg of perigee: 042.4840 deg Mean anomaly: 317.6444 deg Mean motion: 14.73883068 rev/day Decay rate: 8.02e-06 rev/day^2 Epoch rev: 65911 Checksum: 289
Satellite: NOAA-16 Catalog number: 26536 Epoch time: 11292.80620436 Element set: 0471 Inclination: 099.1288 deg RA of node: 325.8133 deg Eccentricity: 0.0011106 Arg of perigee: 045.8012 deg Mean anomaly: 314.4075 deg Mean motion: 14.12654588 rev/day Decay rate: 1.58e-06 rev/day^2 Epoch rev: 57095 Checksum: 294
Satellite: NOAA-17 Catalog number: 27453 Epoch time: 11292.65905608 Element set: 0455 Inclination: 098.3666 deg RA of node: 326.5758 deg Eccentricity: 0.0012285 Arg of perigee: 141.1561 deg Mean anomaly: 219.0506 deg Mean motion: 14.24328068 rev/day Decay rate: 1.02e-06 rev/day^2 Epoch rev: 48437 Checksum: 308
Satellite: NOAA-18 Catalog number: 28654 Epoch time: 11292.64620505 Element set: 0933 Inclination: 099.0123 deg RA of node: 244.1852 deg Eccentricity: 0.0015112 Arg of perigee: 113.7695 deg Mean anomaly: 246.5074 deg Mean motion: 14.11530600 rev/day Decay rate: 4.29e-06 rev/day^2 Epoch rev: 33048 Checksum: 276
Satellite: NOAA-19 Catalog number: 33591 Epoch time: 11292.67098614 Element set: 0124 Inclination: 098.8375 deg RA of node: 230.7869 deg Eccentricity: 0.0013970 Arg of perigee: 347.5544 deg Mean anomaly: 012.5256 deg Mean motion: 14.11222571 rev/day Decay rate: 5.54e-06 rev/day^2 Epoch rev: 13894 Checksum: 317
/EX SB KEPS @ AMSAT $ORB11293.M Orbital Elements 11293.MISC
HR AMSAT ORBITAL ELEMENTS FOR MANNED AND MISCELLANEOUS SATELLITES FROM WA5QGD FORT WORTH,TX October 20, 2011 Send Subscribe/unsubscribe to KEPS at http://www.amsat.org/mailman/listinfo/keps BID: ORB11293.M TO ALL RADIO AMATEURS BT
Satellite: HUBBLE Catalog number: 20580 Epoch time: 11292.35114966 Element set: 0854 Inclination: 028.4708 deg RA of node: 285.2475 deg Eccentricity: 0.0003015 Arg of perigee: 005.0192 deg Mean anomaly: 355.0835 deg Mean motion: 15.01644613 rev/day Decay rate: 2.871e-05 rev/day^2 Epoch rev: 97833 Checksum: 286
Satellite: ISS Catalog number: 25544 Epoch time: 11292.96119193 Element set: 0272 Inclination: 051.6398 deg RA of node: 252.6197 deg Eccentricity: 0.0019187 Arg of perigee: 333.4224 deg Mean anomaly: 098.8584 deg Mean motion: 15.59806961 rev/day Decay rate: 2.3594e-04 rev/day^2 Epoch rev: 74039 Checksum: 341
Satellite: CO-58 Catalog number: 28895 Epoch time: 11292.64690769 Element set: 2 Inclination: 097.9472 deg RA of node: 164.0979 deg Eccentricity: 0.0017678 Arg of perigee: 186.2705 deg Mean anomaly: 173.8269 deg Mean motion: 14.60228535 rev/day Decay rate: 1.204e-05 rev/day^2 Epoch rev: 31840 Checksum: 345
Satellite: FALCON Catalog number: 30776 Epoch time: 11292.50589563 Element set: 196 Inclination: 035.4334 deg RA of node: 310.8019 deg Eccentricity: 0.0001389 Arg of perigee: 068.0135 deg Mean anomaly: 292.0728 deg Mean motion: 15.05275862 rev/day Decay rate: 5.521e-05 rev/day^2 Epoch rev: 25378 Checksum: 300
Satellite: MAST Catalog number: 31126 Epoch time: 11293.64443729 Element set: 288 Inclination: 097.8877 deg RA of node: 313.7389 deg Eccentricity: 0.0094986 Arg of perigee: 139.6192 deg Mean anomaly: 221.2081 deg Mean motion: 14.53841895 rev/day Decay rate: 7.62e-06 rev/day^2 Epoch rev: 23931 Checksum: 339
Satellite: CAPE1 Catalog number: 31130 Epoch time: 11293.81548469 Element set: 300 Inclination: 097.8922 deg RA of node: 310.4931 deg Eccentricity: 0.0102742 Arg of perigee: 150.4490 deg Mean anomaly: 210.2550 deg Mean motion: 14.52513096 rev/day Decay rate: 5.68e-06 rev/day^2 Epoch rev: 23887 Checksum: 277
Satellite: COMPASS Catalog number: 32787 Epoch time: 11292.66597363 Element set: 0122 Inclination: 097.8348 deg RA of node: 354.0904 deg Eccentricity: 0.0016352 Arg of perigee: 127.3195 deg Mean anomaly: 232.9551 deg Mean motion: 14.82779459 rev/day Decay rate: 3.248e-05 rev/day^2 Epoch rev: 18800 Checksum: 326
Satellite: AAUSAT2 Catalog number: 32788 Epoch time: 11292.61325061 Element set: 0114 Inclination: 097.8345 deg RA of node: 354.3056 deg Eccentricity: 0.0016317 Arg of perigee: 128.1236 deg Mean anomaly: 232.1450 deg Mean motion: 14.82995502 rev/day Decay rate: 4.074e-05 rev/day^2 Epoch rev: 18801 Checksum: 281
Satellite: DO-64 Catalog number: 32789 Epoch time: 11293.25120120 Element set: 127 Inclination: 097.8446 deg RA of node: 356.1925 deg Eccentricity: 0.0016004 Arg of perigee: 124.7018 deg Mean anomaly: 235.5704 deg Mean motion: 14.83683276 rev/day Decay rate: 5.353e-05 rev/day^2 Epoch rev: 18812 Checksum: 300
Satellite: CO-66 Catalog number: 32791 Epoch time: 11293.72291200 Element set: 116 Inclination: 097.8365 deg RA of node: 355.0217 deg Eccentricity: 0.0016890 Arg of perigee: 123.7601 deg Mean anomaly: 236.5226 deg Mean motion: 14.82415369 rev/day Decay rate: 2.321e-05 rev/day^2 Epoch rev: 18810 Checksum: 290
Satellite: RS-30 Catalog number: 32953 Epoch time: 11293.79056131 Element set: 186 Inclination: 082.4981 deg RA of node: 084.6274 deg Eccentricity: 0.0019593 Arg of perigee: 111.8585 deg Mean anomaly: 248.4582 deg Mean motion: 12.43016025 rev/day Decay rate: 1.0e-07 rev/day^2 Epoch rev: 15469 Checksum: 301
Satellite: TACSAT-3 Catalog number: 35001 Epoch time: 11292.95472701 Element set: 0731 Inclination: 040.4515 deg RA of node: 132.5781 deg Eccentricity: 0.0015119 Arg of perigee: 052.7420 deg Mean anomaly: 307.4777 deg Mean motion: 15.55089473 rev/day Decay rate: 5.6865e-04 rev/day^2 Epoch rev: 13646 Checksum: 296
Satellite: PHARMSAT Catalog number: 35002 Epoch time: 11293.56808109 Element set: 679 Inclination: 040.4680 deg RA of node: 127.7195 deg Eccentricity: 0.0018374 Arg of perigee: 069.0059 deg Mean anomaly: 291.2752 deg Mean motion: 15.53402527 rev/day Decay rate: 4.2960e-04 rev/day^2 Epoch rev: 13657 Checksum: 303
Satellite: HAWKSAT1 Catalog number: 35003 Epoch time: 11278.76493853 Element set: 0821 Inclination: 040.4370 deg RA of node: 161.0594 deg Eccentricity: 0.0006849 Arg of perigee: 275.9761 deg Mean anomaly: 084.3784 deg Mean motion: 16.29831142 rev/day Decay rate: 5.638703e-02 rev/day^2 Epoch rev: 13489 Checksum: 328
Satellite: CP6 Catalog number: 35004 Epoch time: 11247.64656856 Element set: 784 Inclination: 040.4403 deg RA of node: 342.9642 deg Eccentricity: 0.0002956 Arg of perigee: 038.0069 deg Mean anomaly: 322.2231 deg Mean motion: 16.41039951 rev/day Decay rate: 1.6152067e-01 rev/day^2 Epoch rev: 13013 Checksum: 285
Satellite: METEOR-M Catalog number: 35865 Epoch time: 11293.76389016 Element set: 829 Inclination: 098.6913 deg RA of node: 347.1674 deg Eccentricity: 0.0003259 Arg of perigee: 037.5508 deg Mean anomaly: 322.5903 deg Mean motion: 14.21842586 rev/day Decay rate: 1.0e-07 rev/day^2 Epoch rev: 10843 Checksum: 310
